Weather in Lombovozh

Russia / Khanty-Mansi Autonomous Okrug — Yugra     63°48′38″N   61°28′30″E
temp.,
°C
wind,
m/s
gust,
m/s
humid.,
%
clouds,
%
prec.,
mm/h
press.,
hPa
HPBL,
m
25 october, mon
mon2523:00−5wsw0093100 0.0 100614
02:00−5nnw119488 0.0 100631
05:00−5wnw1191100 0.0 100640
08:00−4wsw1187100 0.0 100656
11:00−2sw1276100 0.0 1007233
14:00−1sw1270100 0.0 1007384
17:00−2sw1184100 0.0 100713
20:00−3wsw2485100 0.0 1007101
26 october, tue
tue2623:00−4wnw1488100 0.0 1007103
02:00−5w129278 0.0 100762
05:00−4nnw2683100 0.0 1009236
08:00−5nnw139199 0.0 1009130
11:00−3wsw237836 0.1 1010202
14:00−2w476424 0.0 1010731
17:00−3wnw410636 0.0 1010529
20:00−5w411695 0.0 1010461
27 october, wed
wed2723:00−4w412694 0.0 1010424
02:00−4w413672 0.0 1011492
05:00−4wnw412660 0.0 1012453
08:00−5w39700 0.0 1013316
11:00−3w26630 0.0 1014331
14:00−2wnw125419 0.0 1014435
17:00−5sse117888 0.0 101410
20:00−4sse1379100 0.0 101384
28 october, thu
thu2823:00−4ese2473100 0.0 1012200
02:00−4e3885100 0.1 1010529
05:00−4e41093100 1.1 1007606
08:00−4e3894100 1.3 1005509
11:00−4ene3693100 2.5 1004438
14:00−3ne3692100 1.1 1003447
17:00−4nne4895100 2.3 1002503
20:00−5nne51094100 1.7 1003583
29 october, fri
fri2923:00−6nne61293100 3.0 1004729
02:00−7n71391100 0.9 1006853
05:00−8n71484100 1.1 1009738
08:00−9n514750 0.0 1012606
11:00−9n310752 0.0 1014330
14:00−7nw25675 0.0 1015262
17:00−8w1488100 0.0 101780
20:00−8nw311787 0.0 1019254